Satellite: NO-44
Catalog number: 26931
Epoch time:      10181.42660123
Element set:    0496
Inclination:      067.0496 deg
RA of node:       169.8630 deg
Eccentricity:    0.0005423
Arg of perigee:   262.7404 deg
Mean anomaly:     097.3093 deg
Mean motion:   14.29600424 rev/day
Decay rate:      -2.01e-06 rev/day^2
Epoch rev:           45664
Checksum:              289

Satellite: SO-50
Catalog number: 27607
Epoch time:      10182.48377304
Element set:     212
Inclination:      064.5590 deg
RA of node:       313.0925 deg
Eccentricity:    0.0035400
Arg of perigee:   070.0444 deg
Mean anomaly:     290.4437 deg
Mean motion:   14.71551325 rev/day
Decay rate:        8.0e-08 rev/day^2
Epoch rev:           40448
Checksum:              266

Satellite: CO-55
Catalog number: 27844
Epoch time:      10181.54665455
Element set:    0879
Inclination:      098.7087 deg
RA of node:       190.3279 deg
Eccentricity:    0.0010391
Arg of perigee:   127.4410 deg
Mean anomaly:     232.7729 deg
Mean motion:   14.20715329 rev/day
Decay rate:        5.0e-07 rev/day^2
Epoch rev:           36298
Checksum:              323

Satellite: CO-57
Catalog number: 27848
Epoch time:      10182.56431638
Element set:     831
Inclination:      098.7122 deg
RA of node:       190.4271 deg
Eccentricity:    0.0010298
Arg of perigee:   129.8714 deg
Mean anomaly:     230.3372 deg
Mean motion:   14.20507630 rev/day
Decay rate:        6.1e-07 rev/day^2
Epoch rev:           36308
Checksum:              292

Satellite: AO-51
Catalog number: 28375
Epoch time:      10181.48367536
Element set:    0713
Inclination:      098.0625 deg
RA of node:       174.2221 deg
Eccentricity:    0.0085203
Arg of perigee:   056.8770 deg
Mean anomaly:     304.0562 deg
Mean motion:   14.40689204 rev/day
Decay rate:        9.0e-08 rev/day^2
Epoch rev:           31542
Checksum:              289

Satellite: GENESAT1
Catalog number: 29655
Epoch time:      10182.71638784
Element set:     140
Inclination:      040.0155 deg
RA of node:       293.5207 deg
Eccentricity:    0.0008725
Arg of perigee:   048.6689 deg
Mean anomaly:     311.4995 deg
Mean motion:   15.98538407 rev/day
Decay rate:    2.03407e-03 rev/day^2
Epoch rev:           20231
Checksum:              307

Satellite: CP3
Catalog number: 31129
Epoch time:      10181.51316043
Element set:    0615
Inclination:      097.9356 deg
RA of node:       220.3710 deg
Eccentricity:    0.0103820
Arg of perigee:   190.9533 deg
Mean anomaly:     168.9594 deg
Mean motion:   14.52272147 rev/day
Decay rate:       2.16e-06 rev/day^2
Epoch rev:           16979
Checksum:              290

Satellite: CO-65
Catalog number: 32785
Epoch time:      10182.41398721
Element set:     721
Inclination:      097.8953 deg
RA of node:       247.1446 deg
Eccentricity:    0.0013880
Arg of perigee:   236.8435 deg
Mean anomaly:     123.1467 deg
Mean motion:   14.81673774 rev/day
Decay rate:       4.75e-06 rev/day^2
Epoch rev:           11759
Checksum:              334

Satellite: KKS-1
Catalog number: 33493
Epoch time:      10182.57752785
Element set:     621
Inclination:      098.0875 deg
RA of node:       302.1933 deg
Eccentricity:    0.0021396
Arg of perigee:   094.4055 deg
Mean anomaly:     265.9605 deg
Mean motion:   14.81022470 rev/day
Decay rate:       4.31e-06 rev/day^2
Epoch rev:            7761
Checksum:              297

Satellite: SOHLA-1
Catalog number: 33496
Epoch time:      10181.77915786
Element set:    0142
Inclination:      098.0609 deg
RA of node:       290.6791 deg
Eccentricity:    0.0006958
Arg of perigee:   151.2033 deg
Mean anomaly:     208.9566 deg
Mean motion:   14.69500541 rev/day
Decay rate:        6.2e-07 rev/day^2
Epoch rev:           07687
Checksum:              321

/EX
SB KEPS @ AMSAT  $ORB10182.W
Orbital Elements  10182.WEATHER

HR AMSAT ORBITAL ELEMENTS FOR WEATHER SATELLITES
FROM WA5QGD FORT WORTH,TX July 1, 2010
Send Subscribe/unsubscribe to KEPS at http://www.amsat.org/mailman/listinfo/kep
BID: ORB10182.W
TO ALL RADIO AMATEURS BT

Satellite: NOAA-10
Catalog number: 16969
Epoch time:      10181.61149397
Element set:    0116
Inclination:      098.6543 deg
RA of node:       210.4526 deg
Eccentricity:    0.0012264
Arg of perigee:   168.4756 deg
Mean anomaly:     191.6720 deg
Mean motion:   14.27420333 rev/day
Decay rate:        5.1e-07 rev/day^2
Epoch rev:           23749
Checksum:              295

Satellite: NOAA-11
Catalog number: 19531
Epoch time:      10181.32251370
Element set:    0128
Inclination:      098.7704 deg
RA of node:       270.1243 deg
Eccentricity:    0.0012241
Arg of perigee:   108.2946 deg
Mean anomaly:     251.9582 deg
Mean motion:   14.14928071 rev/day
Decay rate:      -1.80e-06 rev/day^2
Epoch rev:           12299
Checksum:              272

Satellite: NOAA-12
Catalog number: 21263
Epoch time:      10181.82635799
Element set:    0616
Inclination:      098.7642 deg
RA of node:       194.9828 deg
Eccentricity:    0.0013175
Arg of perigee:   124.0041 deg
Mean anomaly:     236.2384 deg
Mean motion:   14.25641604 rev/day
Decay rate:        6.5e-07 rev/day^2
Epoch rev:           99434
Checksum:              308

